Date,TemperatureHighF,TemperatureAvgF,TemperatureLowF,DewpointHighF,DewpointAvgF,DewpointLowF,HumidityHigh,HumidityAvg,HumidityLow,PressureMaxIn,PressureMinIn,WindSpeedMaxMPH,WindSpeedAvgMPH,GustSpeedMaxMPH,PrecipitationSumIn
2013-5-1,89,72,58,27,18,9,25,13,10,29.85,29.62,15,6,18,0.00
2013-5-2,93,72,52,27,22,15,27,17,9,29.94,29.83,10,3,10,0.00
2013-5-3,93,73,52,38,27,21,44,21,9,29.83,29.56,10,2,10,0.00
2013-5-4,90,74,58,34,27,16,37,20,10,29.56,29.29,14,4,15,0.00
2013-5-5,76,64,53,36,32,25,48,31,16,29.50,29.35,11,4,11,0.00
2013-5-6,58,58,58,49,49,48,71,70,70,29.74,29.74,3,1,4,0.00
2013-5-7,75,65,56,52,39,30,77,45,21,29.80,29.74,8,2,8,0.00
2013-5-8,76,64,56,41,34,27,55,34,18,29.88,29.77,10,4,10,0.00
2013-5-9,77,59,52,40,35,32,63,42,21,29.88,29.80,10,4,11,0.00
2013-5-10,87,68,52,43,38,33,63,36,18,29.91,29.83,9,3,10,0.00
2013-5-11,94,75,55,43,36,30,55,29,11,29.88,29.77,7,2,7,0.00
2013-5-12,95,75,56,40,31,23,46,23,9,29.88,29.77,9,3,9,0.00
2013-5-13,93,74,57,37,30,24,36,23,9,29.83,29.65,8,3,8,0.00
2013-5-14,89,72,57,41,34,23,49,28,11,29.68,29.62,11,3,11,0.00
2013-5-15,78,66,54,33,29,24,38,26,15,29.77,29.68,12,5,12,0.00
2013-5-16,77,64,56,39,33,26,47,33,18,29.77,29.68,15,5,15,0.00
2013-5-17,77,63,51,34,28,17,49,30,13,29.83,29.71,10,4,10,0.00
2013-5-18,82,66,48,35,28,21,50,28,11,29.88,29.80,9,3,9,0.00
2013-5-19,84,70,53,38,27,18,50,23,11,29.85,29.71,15,5,17,0.00
2013-5-20,91,74,56,31,26,18,36,18,10,29.77,29.65,11,4,11,0.00
2013-5-21,83,69,56,32,25,19,35,21,11,29.71,29.62,17,5,17,0.00
2013-5-22,73,61,48,26,14,8,33,17,11,29.74,29.62,18,6,24,0.00
2013-5-23,76,61,47,30,23,11,48,26,11,29.74,29.65,10,3,13,0.00
2013-5-24,80,63,46,33,24,15,49,26,10,29.77,29.68,10,3,10,0.00
2013-5-25,79,63,49,32,27,21,44,28,12,29.77,29.71,11,4,11,0.00
2013-5-26,80,64,52,39,32,23,56,32,15,29.85,29.77,10,4,10,0.00
2013-5-27,68,60,52,45,35,30,65,40,27,29.85,29.77,9,4,9,0.00
2013-5-28,79,67,57,51,40,25,74,44,15,29.77,29.65,10,3,10,0.04
2013-5-29,82,68,56,49,36,22,75,34,12,29.71,29.65,11,4,11,0.04
2013-5-30,86,69,51,40,31,20,58,29,11,29.74,29.65,10,2,10,0.00
2013-5-31,92,72,51,44,29,20,58,25,9,29.77,29.65,15,3,15,0.00